START_TIME,STEP,MOV.,AL01,t_acc.,AL02,t_acc.,E37,t_acc.,H21,t_acc.
1989-08-27T21:00:34.810 ,7,0,20.,24.0,0.,24.0,0.,24.0,0.,24.0
1989-08-27T21:00:58.810 ,6,1,31.,24.0,0.,24.0,0.,24.0,0.,24.0
1989-08-27T21:01:22.810 ,6,0,0.,24.0,0.,24.0,0.,24.0,0.,24.0
1989-08-27T21:01:46.810 ,5,1,0.,24.0,0.,24.0,0.,24.0,0.,24.0
1989-08-27T21:02:10.810 ,5,0,0.,24.0,0.,24.0,0.,24.0,0.,24.0
1989-08-27T21:02:34.810 ,4,1,0.,24.0,0.,24.0,0.,24.0,0.,24.0
1989-08-27T21:02:58.810 ,4,0,0.,24.0,0.,24.0,0.,24.0,0.,24.0
1989-08-27T21:03:22.810 ,3,1,0.,24.0,0.,24.0,0.,24.0,0.,24.0
1989-08-27T21:03:46.810 ,3,0,0.,24.0,0.,24.0,0.,24.0,0.,24.0
1989-08-27T21:04:10.810 ,2,1,0.,24.0,0.,24.0,0.,24.0,0.,24.0
1989-08-27T21:04:34.810 ,2,0,0.,24.0,0.,24.0,0.,24.0,0.,24.0
1989-08-27T21:04:58.810 ,1,1,0.,24.0,0.,24.0,0.,24.0,0.,24.0
1989-08-27T21:05:22.810 ,1,0,0.,24.0,0.,24.0,0.,24.0,0.,24.0
1989-08-27T21:05:46.810 ,0,1,0.,24.0,0.,24.0,0.,24.0,0.,24.0
1989-08-27T21:06:10.810 ,0,0,0.,24.0,0.,24.0,0.,24.0,0.,24.0
1989-08-27T21:06:34.810 ,0,1,0.,24.0,0.,24.0,0.,24.0,0.,24.0
1989-08-27T21:06:58.810 ,0,0,0.,24.0,0.,24.0,0.,24.0,0.,24.0
1989-08-27T21:07:22.810 ,1,1,0.,24.0,0.,24.0,0.,24.0,0.,24.0
1989-08-27T21:07:46.810 ,1,0,0.,24.0,0.,24.0,0.,24.0,0.,24.0
1989-08-27T21:08:10.810 ,2,1,1.,24.0,0.,24.0,0.,24.0,0.,24.0
1989-08-27T21:08:34.810 ,2,0,0.,24.0,0.,24.0,0.,24.0,0.,24.0
1989-08-27T21:08:58.810 ,3,1,0.,24.0,0.,24.0,0.,24.0,0.,24.0
1989-08-27T21:09:22.810 ,3,0,0.,24.0,0.,24.0,0.,24.0,0.,24.0
1989-08-27T21:09:46.810 ,4,1,0.,24.0,0.,24.0,0.,24.0,0.,24.0
1989-08-27T21:10:10.810 ,4,0,1.,24.0,1.,24.0,0.,24.0,0.,24.0
1989-08-27T21:10:34.810 ,5,1,0.,24.0,0.,24.0,0.,24.0,0.,24.0
1989-08-27T21:10:58.810 ,5,0,0.,24.0,0.,24.0,0.,24.0,0.,24.0
1989-08-27T21:11:22.810 ,6,1,0.,24.0,1.,24.0,0.,24.0,0.,24.0
1989-08-27T21:11:46.810 ,6,0,0.,24.0,0.,24.0,0.,24.0,0.,24.0
1989-08-27T21:12:10.810 ,7,1,5.,24.0,0.,24.0,0.,24.0,0.,24.0
1989-08-27T21:12:34.810 ,7,0,31.,24.0,0.,24.0,0.,24.0,0.,24.0
1989-08-27T21:12:58.810 ,7,1,38.,24.0,1.,24.0,0.,24.0,0.,24.0
1989-08-27T21:13:22.810 ,7,0,26.,24.0,0.,24.0,0.,24.0,0.,24.0
1989-08-27T21:13:46.810 ,6,1,21.,24.0,0.,24.0,0.,24.0,0.,24.0
1989-08-27T21:14:10.810 ,6,0,0.,24.0,0.,24.0,0.,24.0,0.,24.0
1989-08-27T21:14:34.810 ,5,1,0.,24.0,0.,24.0,0.,24.0,0.,24.0
1989-08-27T21:14:58.810 ,5,0,0.,24.0,0.,24.0,0.,24.0,0.,24.0
1989-08-27T21:15:22.810 ,4,1,0.,24.0,0.,24.0,0.,24.0,0.,24.0
1989-08-27T21:15:46.810 ,4,0,0.,24.0,0.,24.0,0.,24.0,0.,24.0
1989-08-27T21:16:10.810 ,3,1,0.,24.0,0.,24.0,0.,24.0,0.,24.0
1989-08-27T21:16:34.810 ,3,0,0.,24.0,0.,24.0,0.,24.0,0.,24.0
1989-08-27T21:16:58.810 ,2,1,0.,24.0,0.,24.0,0.,24.0,0.,24.0
1989-08-27T21:17:22.810 ,2,0,0.,24.0,0.,24.0,0.,24.0,0.,24.0
1989-08-27T21:17:46.810 ,1,1,0.,24.0,0.,24.0,0.,24.0,0.,24.0
1989-08-27T21:18:10.810 ,1,0,0.,24.0,0.,24.0,0.,24.0,0.,24.0
1989-08-27T21:18:34.810 ,0,1,0.,24.0,0.,24.0,0.,24.0,0.,24.0
1989-08-27T21:18:58.810 ,0,0,0.,24.0,0.,24.0,0.,24.0,0.,24.0
1989-08-27T21:19:22.810 ,0,1,0.,24.0,0.,24.0,0.,24.0,0.,24.0
1989-08-27T21:19:46.810 ,0,0,0.,24.0,0.,24.0,0.,24.0,0.,24.0
1989-08-27T21:20:10.810 ,1,1,0.,24.0,0.,24.0,0.,24.0,0.,24.0
1989-08-27T21:20:34.810 ,1,0,0.,24.0,0.,24.0,0.,24.0,0.,24.0
1989-08-27T21:20:58.810 ,2,1,0.,24.0,0.,24.0,0.,24.0,0.,24.0
1989-08-27T21:21:22.810 ,2,0,0.,24.0,0.,24.0,0.,24.0,0.,24.0
1989-08-27T21:21:46.810 ,3,1,0.,24.0,0.,24.0,0.,24.0,0.,24.0
1989-08-27T21:22:10.810 ,3,0,0.,24.0,0.,24.0,0.,24.0,0.,24.0
1989-08-27T21:22:34.810 ,4,1,0.,24.0,0.,24.0,0.,24.0,0.,24.0
1989-08-27T21:22:58.810 ,4,0,0.,24.0,0.,24.0,0.,24.0,0.,24.0
1989-08-27T21:23:22.810 ,5,1,0.,24.0,0.,24.0,0.,24.0,0.,24.0
1989-08-27T21:23:46.810 ,5,0,0.,24.0,0.,24.0,0.,24.0,0.,24.0
1989-08-27T21:24:10.810 ,6,1,0.,24.0,0.,24.0,0.,24.0,0.,24.0
1989-08-27T21:24:34.810 ,6,0,1.,24.0,0.,24.0,0.,24.0,0.,24.0
1989-08-27T21:24:58.810 ,7,1,8.,24.0,0.,24.0,0.,24.0,0.,24.0
1989-08-27T21:25:22.810 ,7,0,32.,24.0,0.,24.0,0.,24.0,0.,24.0
1989-08-27T21:25:46.810 ,7,1,34.,24.0,0.,24.0,0.,24.0,0.,24.0
1989-08-27T21:26:10.810 ,7,0,22.,24.0,0.,24.0,0.,24.0,0.,24.0
1989-08-27T21:26:34.810 ,6,1,17.,24.0,0.,24.0,0.,24.0,0.,24.0
1989-08-27T21:26:58.810 ,6,0,0.,24.0,0.,24.0,0.,24.0,0.,24.0
1989-08-27T21:27:22.810 ,5,1,0.,24.0,0.,24.0,0.,24.0,0.,24.0
1989-08-27T21:27:46.810 ,5,0,0.,24.0,0.,24.0,0.,24.0,0.,24.0
1989-08-27T21:28:10.810 ,4,1,0.,24.0,0.,24.0,0.,24.0,0.,24.0
1989-08-27T21:28:34.810 ,4,0,0.,24.0,0.,24.0,0.,24.0,0.,24.0
1989-08-27T21:28:58.810 ,3,1,0.,24.0,0.,24.0,0.,24.0,0.,24.0
1989-08-27T21:29:22.810 ,3,0,0.,24.0,0.,24.0,0.,24.0,0.,24.0
1989-08-27T21:29:46.810 ,2,1,0.,24.0,0.,24.0,0.,24.0,0.,24.0
1989-08-27T21:30:10.810 ,2,0,0.,24.0,0.,24.0,0.,24.0,0.,24.0
1989-08-27T21:30:34.810 ,1,1,0.,24.0,0.,24.0,0.,24.0,0.,24.0
1989-08-27T21:30:58.810 ,1,0,0.,24.0,0.,24.0,0.,24.0,0.,24.0
1989-08-27T21:31:22.810 ,0,1,0.,24.0,0.,24.0,0.,24.0,0.,24.0
1989-08-27T21:31:46.810 ,0,0,0.,24.0,0.,24.0,0.,24.0,0.,24.0
1989-08-27T21:32:10.810 ,0,1,0.,24.0,0.,24.0,0.,24.0,0.,24.0
1989-08-27T21:32:34.810 ,0,0,0.,24.0,0.,24.0,0.,24.0,0.,24.0
1989-08-27T21:32:58.810 ,1,1,1.,24.0,0.,24.0,0.,24.0,0.,24.0
1989-08-27T21:33:22.810 ,1,0,0.,24.0,0.,24.0,0.,24.0,0.,24.0
1989-08-27T21:33:46.810 ,2,1,0.,24.0,0.,24.0,0.,24.0,0.,24.0
1989-08-27T21:34:10.810 ,2,0,0.,24.0,0.,24.0,0.,24.0,0.,24.0
1989-08-27T21:34:34.810 ,3,1,0.,24.0,0.,24.0,0.,24.0,0.,24.0
1989-08-27T21:34:58.810 ,3,0,0.,24.0,0.,24.0,0.,24.0,0.,24.0
1989-08-27T21:35:22.810 ,4,1,0.,24.0,0.,24.0,0.,24.0,0.,24.0
1989-08-27T21:35:46.810 ,4,0,0.,24.0,0.,24.0,0.,24.0,0.,24.0
1989-08-27T21:36:10.810 ,5,1,0.,24.0,0.,24.0,0.,24.0,0.,24.0
1989-08-27T21:36:34.810 ,5,0,0.,24.0,0.,24.0,0.,24.0,0.,24.0
1989-08-27T21:36:58.810 ,6,1,0.,24.0,0.,24.0,0.,24.0,0.,24.0
1989-08-27T21:37:22.810 ,6,0,0.,24.0,0.,24.0,0.,24.0,0.,24.0
1989-08-27T21:37:46.810 ,7,1,4.,24.0,0.,24.0,0.,24.0,0.,24.0
1989-08-27T21:38:10.810 ,7,0,29.,24.0,0.,24.0,0.,24.0,0.,24.0
1989-08-27T21:38:34.810 ,7,1,26.,24.0,0.,24.0,0.,24.0,0.,24.0
1989-08-27T21:38:58.810 ,7,0,29.,24.0,0.,24.0,0.,24.0,0.,24.0
1989-08-27T21:39:22.810 ,6,1,19.,24.0,0.,24.0,0.,24.0,0.,24.0
1989-08-27T21:39:46.810 ,6,0,0.,24.0,0.,24.0,0.,24.0,0.,24.0
1989-08-27T21:40:10.810 ,5,1,0.,24.0,0.,24.0,0.,24.0,0.,24.0
1989-08-27T21:40:34.810 ,5,0,0.,24.0,0.,24.0,0.,24.0,0.,24.0
1989-08-27T21:40:58.810 ,4,1,0.,24.0,0.,24.0,0.,24.0,0.,24.0
1989-08-27T21:41:22.810 ,4,0,0.,24.0,0.,24.0,0.,24.0,0.,24.0
1989-08-27T21:41:46.810 ,3,1,1.,24.0,0.,24.0,0.,24.0,0.,24.0
1989-08-27T21:42:10.810 ,3,0,0.,24.0,0.,24.0,0.,24.0,0.,24.0
1989-08-27T21:42:34.800 ,2,1,0.,24.0,0.,24.0,0.,24.0,0.,24.0
1989-08-27T21:42:58.800 ,2,0,0.,24.0,0.,24.0,0.,24.0,0.,24.0
1989-08-27T21:43:22.800 ,1,1,0.,24.0,0.,24.0,0.,24.0,0.,24.0
1989-08-27T21:43:46.800 ,1,0,0.,24.0,0.,24.0,0.,24.0,0.,24.0
1989-08-27T21:44:10.800 ,0,1,0.,24.0,0.,24.0,0.,24.0,0.,24.0
1989-08-27T21:44:34.800 ,0,0,0.,24.0,0.,24.0,0.,24.0,0.,24.0
1989-08-27T21:44:58.800 ,0,1,0.,24.0,0.,24.0,0.,24.0,0.,24.0
1989-08-27T21:45:22.800 ,0,0,0.,24.0,0.,24.0,0.,24.0,0.,24.0
1989-08-27T21:45:46.800 ,1,1,0.,24.0,0.,24.0,0.,24.0,0.,24.0
1989-08-27T21:46:10.800 ,1,0,0.,24.0,0.,24.0,0.,24.0,0.,24.0
1989-08-27T21:46:34.800 ,2,1,0.,24.0,0.,24.0,0.,24.0,0.,24.0
1989-08-27T21:46:58.800 ,2,0,0.,24.0,0.,24.0,0.,24.0,0.,24.0
1989-08-27T21:47:22.800 ,3,1,0.,24.0,0.,24.0,0.,24.0,0.,24.0
1989-08-27T21:47:46.800 ,3,0,0.,24.0,0.,24.0,0.,24.0,0.,24.0
1989-08-27T21:48:10.800 ,4,1,0.,24.0,0.,24.0,0.,24.0,0.,24.0
1989-08-27T21:48:34.800 ,4,0,0.,24.0,0.,24.0,0.,24.0,0.,24.0
1989-08-27T21:48:58.800 ,5,1,0.,24.0,0.,24.0,0.,24.0,0.,24.0
1989-08-27T21:49:22.800 ,5,0,0.,24.0,0.,24.0,0.,24.0,0.,24.0
1989-08-27T21:49:46.800 ,6,1,0.,24.0,0.,24.0,0.,24.0,0.,24.0
1989-08-27T21:50:10.800 ,6,0,0.,24.0,0.,24.0,0.,24.0,0.,24.0
1989-08-27T21:50:34.800 ,7,1,7.,24.0,0.,24.0,0.,24.0,0.,24.0
1989-08-27T21:50:58.800 ,7,0,23.,24.0,0.,24.0,0.,24.0,0.,24.0
1989-08-27T21:51:22.800 ,7,1,41.,24.0,0.,24.0,0.,24.0,0.,24.0
1989-08-27T21:51:46.800 ,7,0,27.,24.0,0.,24.0,0.,24.0,0.,24.0
1989-08-27T21:52:10.800 ,6,1,30.,24.0,0.,24.0,0.,24.0,0.,24.0
1989-08-27T21:52:34.800 ,6,0,0.,24.0,0.,24.0,0.,24.0,0.,24.0
1989-08-27T21:52:58.800 ,5,1,0.,24.0,0.,24.0,0.,24.0,0.,24.0
1989-08-27T21:53:22.800 ,5,0,0.,24.0,0.,24.0,0.,24.0,0.,24.0
1989-08-27T21:53:46.800 ,4,1,0.,24.0,0.,24.0,0.,24.0,0.,24.0
1989-08-27T21:54:10.800 ,4,0,0.,24.0,0.,24.0,0.,24.0,0.,24.0
1989-08-27T21:54:34.800 ,3,1,0.,24.0,0.,24.0,0.,24.0,0.,24.0
1989-08-27T21:54:58.800 ,3,0,0.,24.0,1.,24.0,0.,24.0,0.,24.0
1989-08-27T21:55:22.800 ,2,1,0.,24.0,0.,24.0,0.,24.0,0.,24.0
1989-08-27T21:55:46.800 ,2,0,0.,24.0,0.,24.0,0.,24.0,0.,24.0
1989-08-27T21:56:10.800 ,1,1,0.,24.0,0.,24.0,0.,24.0,0.,24.0
1989-08-27T21:56:34.800 ,1,0,0.,24.0,0.,24.0,0.,24.0,0.,24.0
1989-08-27T21:56:58.800 ,0,1,1.,24.0,0.,24.0,0.,24.0,0.,24.0
1989-08-27T21:57:22.800 ,0,0,0.,24.0,0.,24.0,0.,24.0,0.,24.0
1989-08-27T21:57:46.800 ,0,1,0.,24.0,0.,24.0,0.,24.0,0.,24.0
1989-08-27T21:58:10.800 ,0,0,0.,24.0,0.,24.0,0.,24.0,0.,24.0
1989-08-27T21:58:34.800 ,1,1,0.,24.0,0.,24.0,0.,24.0,0.,24.0
1989-08-27T21:58:58.800 ,1,0,0.,24.0,0.,24.0,0.,24.0,0.,24.0
1989-08-27T21:59:22.800 ,2,1,0.,24.0,0.,24.0,0.,24.0,0.,24.0
1989-08-27T21:59:46.800 ,2,0,0.,24.0,0.,24.0,0.,24.0,0.,24.0
1989-08-27T22:00:10.800 ,3,1,0.,24.0,0.,24.0,0.,24.0,0.,24.0
1989-08-27T22:00:34.800 ,3,0,1.,24.0,0.,24.0,0.,24.0,0.,24.0
1989-08-27T22:00:58.800 ,4,1,0.,24.0,0.,24.0,0.,24.0,0.,24.0
1989-08-27T22:01:22.800 ,4,0,0.,24.0,0.,24.0,0.,24.0,0.,24.0
1989-08-27T22:01:46.800 ,5,1,0.,24.0,0.,24.0,0.,24.0,0.,24.0
1989-08-27T22:02:10.800 ,5,0,0.,24.0,0.,24.0,0.,24.0,0.,24.0
1989-08-27T22:02:34.800 ,6,1,0.,24.0,0.,24.0,0.,24.0,0.,24.0
1989-08-27T22:02:58.800 ,6,0,0.,24.0,0.,24.0,0.,24.0,0.,24.0
1989-08-27T22:03:22.800 ,7,1,6.,24.0,0.,24.0,0.,24.0,0.,24.0
1989-08-27T22:03:46.800 ,7,0,31.,24.0,0.,24.0,0.,24.0,0.,24.0
1989-08-27T22:04:10.800 ,7,1,31.,24.0,0.,24.0,0.,24.0,0.,24.0
1989-08-27T22:04:34.800 ,7,0,28.,24.0,0.,24.0,0.,24.0,0.,24.0
1989-08-27T22:04:58.800 ,6,1,26.,24.0,0.,24.0,0.,24.0,0.,24.0
1989-08-27T22:05:22.800 ,6,0,0.,24.0,0.,24.0,0.,24.0,0.,24.0
1989-08-27T22:05:46.800 ,5,1,0.,24.0,0.,24.0,0.,24.0,0.,24.0
1989-08-27T22:06:10.800 ,5,0,0.,24.0,0.,24.0,0.,24.0,0.,24.0
1989-08-27T22:06:34.800 ,4,1,0.,24.0,0.,24.0,0.,24.0,0.,24.0
1989-08-27T22:06:58.800 ,4,0,0.,24.0,0.,24.0,0.,24.0,0.,24.0
1989-08-27T22:07:22.800 ,3,1,0.,24.0,0.,24.0,0.,24.0,0.,24.0
1989-08-27T22:07:46.800 ,3,0,0.,24.0,0.,24.0,0.,24.0,0.,24.0
1989-08-27T22:08:10.800 ,2,1,0.,24.0,0.,24.0,0.,24.0,0.,24.0
1989-08-27T22:08:34.800 ,2,0,0.,24.0,0.,24.0,0.,24.0,0.,24.0
1989-08-27T22:08:58.800 ,1,1,0.,24.0,0.,24.0,0.,24.0,0.,24.0
1989-08-27T22:09:22.800 ,1,0,0.,24.0,0.,24.0,0.,24.0,0.,24.0
1989-08-27T22:09:46.800 ,0,1,0.,24.0,0.,24.0,0.,24.0,0.,24.0
1989-08-27T22:10:10.800 ,0,0,0.,24.0,0.,24.0,0.,24.0,0.,24.0
1989-08-27T22:10:34.800 ,0,1,0.,24.0,0.,24.0,0.,24.0,0.,24.0
1989-08-27T22:10:58.800 ,0,0,0.,24.0,0.,24.0,0.,24.0,0.,24.0
1989-08-27T22:11:22.800 ,1,1,0.,24.0,0.,24.0,0.,24.0,0.,24.0
1989-08-27T22:11:46.800 ,1,0,0.,24.0,0.,24.0,0.,24.0,0.,24.0
1989-08-27T22:12:10.800 ,2,1,0.,24.0,0.,24.0,0.,24.0,0.,24.0
1989-08-27T22:12:34.800 ,2,0,0.,24.0,0.,24.0,0.,24.0,0.,24.0
1989-08-27T22:12:58.800 ,3,1,0.,24.0,0.,24.0,0.,24.0,0.,24.0
1989-08-27T22:13:22.800 ,3,0,0.,24.0,0.,24.0,0.,24.0,0.,24.0
1989-08-27T22:13:46.800 ,4,1,0.,24.0,0.,24.0,0.,24.0,0.,24.0
1989-08-27T22:14:10.800 ,4,0,0.,24.0,0.,24.0,0.,24.0,0.,24.0
1989-08-27T22:14:34.800 ,5,1,0.,24.0,0.,24.0,0.,24.0,0.,24.0
1989-08-27T22:14:58.800 ,5,0,0.,24.0,0.,24.0,0.,24.0,0.,24.0
1989-08-27T22:15:22.800 ,6,1,0.,24.0,0.,24.0,0.,24.0,0.,24.0
1989-08-27T22:15:46.800 ,6,0,1.,24.0,0.,24.0,0.,24.0,0.,24.0
1989-08-27T22:16:10.800 ,7,1,9.,24.0,0.,24.0,0.,24.0,0.,24.0
1989-08-27T22:16:34.800 ,7,0,25.,24.0,0.,24.0,0.,24.0,0.,24.0
1989-08-27T22:16:58.800 ,7,1,32.,24.0,0.,24.0,0.,24.0,0.,24.0
1989-08-27T22:17:22.800 ,7,0,18.,24.0,0.,24.0,0.,24.0,0.,24.0
1989-08-27T22:17:46.800 ,6,1,25.,24.0,0.,24.0,0.,24.0,0.,24.0
1989-08-27T22:18:10.800 ,6,0,0.,24.0,0.,24.0,0.,24.0,0.,24.0
1989-08-27T22:18:34.800 ,5,1,0.,24.0,0.,24.0,0.,24.0,0.,24.0
1989-08-27T22:18:58.800 ,5,0,0.,24.0,0.,24.0,0.,24.0,0.,24.0
1989-08-27T22:19:22.800 ,4,1,0.,24.0,0.,24.0,0.,24.0,0.,24.0
1989-08-27T22:19:46.800 ,4,0,0.,24.0,0.,24.0,0.,24.0,0.,24.0
1989-08-27T22:20:10.800 ,3,1,0.,24.0,0.,24.0,0.,24.0,0.,24.0
1989-08-27T22:20:34.800 ,3,0,0.,24.0,0.,24.0,0.,24.0,0.,24.0
1989-08-27T22:20:58.800 ,2,1,0.,24.0,0.,24.0,0.,24.0,0.,24.0
1989-08-27T22:21:22.800 ,2,0,0.,24.0,0.,24.0,0.,24.0,0.,24.0
1989-08-27T22:21:46.800 ,1,1,0.,24.0,0.,24.0,0.,24.0,0.,24.0
1989-08-27T22:22:10.800 ,1,0,0.,24.0,0.,24.0,0.,24.0,0.,24.0
1989-08-27T22:22:34.800 ,0,1,0.,24.0,0.,24.0,0.,24.0,0.,24.0
1989-08-27T22:22:58.800 ,0,0,0.,24.0,0.,24.0,0.,24.0,0.,24.0
1989-08-27T22:23:22.800 ,0,1,0.,24.0,0.,24.0,0.,24.0,0.,24.0
1989-08-27T22:23:46.800 ,0,0,0.,24.0,0.,24.0,0.,24.0,0.,24.0
1989-08-27T22:24:10.800 ,1,1,0.,24.0,0.,24.0,0.,24.0,0.,24.0
1989-08-27T22:24:34.800 ,1,0,0.,24.0,1.,24.0,0.,24.0,0.,24.0
1989-08-27T22:24:58.800 ,2,1,0.,24.0,0.,24.0,0.,24.0,0.,24.0
1989-08-27T22:25:22.800 ,2,0,0.,24.0,0.,24.0,0.,24.0,0.,24.0
1989-08-27T22:25:46.800 ,3,1,0.,24.0,0.,24.0,0.,24.0,0.,24.0
1989-08-27T22:26:10.800 ,3,0,1.,24.0,0.,24.0,0.,24.0,0.,24.0
1989-08-27T22:26:34.800 ,4,1,0.,24.0,0.,24.0,0.,24.0,0.,24.0
1989-08-27T22:26:58.800 ,4,0,0.,24.0,0.,24.0,0.,24.0,0.,24.0
1989-08-27T22:27:22.800 ,5,1,0.,24.0,0.,24.0,0.,24.0,0.,24.0
1989-08-27T22:27:46.800 ,5,0,0.,24.0,0.,24.0,0.,24.0,0.,24.0
1989-08-27T22:28:10.800 ,6,1,0.,24.0,0.,24.0,0.,24.0,0.,24.0
1989-08-27T22:28:34.800 ,6,0,0.,24.0,0.,24.0,0.,24.0,0.,24.0
1989-08-27T22:28:58.800 ,7,1,2.,24.0,0.,24.0,0.,24.0,0.,24.0
1989-08-27T22:29:22.800 ,7,0,27.,24.0,0.,24.0,0.,24.0,0.,24.0
1989-08-27T22:29:46.800 ,7,1,30.,24.0,0.,24.0,0.,24.0,0.,24.0
1989-08-27T22:30:10.800 ,7,0,26.,24.0,0.,24.0,0.,24.0,0.,24.0
1989-08-27T22:30:34.800 ,6,1,29.,24.0,0.,24.0,0.,24.0,0.,24.0
1989-08-27T22:30:58.800 ,6,0,0.,24.0,0.,24.0,0.,24.0,0.,24.0
1989-08-27T22:31:22.800 ,5,1,0.,24.0,0.,24.0,0.,24.0,0.,24.0
1989-08-27T22:31:46.800 ,5,0,0.,24.0,0.,24.0,0.,24.0,0.,24.0
1989-08-27T22:32:10.800 ,4,1,0.,24.0,0.,24.0,0.,24.0,0.,24.0
1989-08-27T22:32:34.800 ,4,0,0.,24.0,0.,24.0,0.,24.0,0.,24.0
1989-08-27T22:32:58.800 ,3,1,0.,24.0,0.,24.0,0.,24.0,0.,24.0
1989-08-27T22:33:22.800 ,3,0,0.,24.0,0.,24.0,0.,24.0,0.,24.0
1989-08-27T22:33:46.800 ,2,1,0.,24.0,0.,24.0,0.,24.0,0.,24.0
1989-08-27T22:34:10.800 ,2,0,0.,24.0,0.,24.0,0.,24.0,0.,24.0
1989-08-27T22:34:34.800 ,1,1,0.,24.0,0.,24.0,0.,24.0,0.,24.0
1989-08-27T22:34:58.800 ,1,0,0.,24.0,0.,24.0,0.,24.0,0.,24.0
1989-08-27T22:35:22.800 ,0,1,1.,24.0,0.,24.0,0.,24.0,0.,24.0
1989-08-27T22:35:46.800 ,0,0,0.,24.0,1.,24.0,0.,24.0,0.,24.0
1989-08-27T22:36:10.800 ,0,1,0.,24.0,0.,24.0,0.,24.0,0.,24.0
1989-08-27T22:36:34.800 ,0,0,0.,24.0,0.,24.0,0.,24.0,0.,24.0
1989-08-27T22:36:58.800 ,1,1,0.,24.0,0.,24.0,0.,24.0,0.,24.0
1989-08-27T22:37:22.800 ,1,0,0.,24.0,0.,24.0,0.,24.0,0.,24.0
1989-08-27T22:37:46.800 ,2,1,0.,24.0,0.,24.0,0.,24.0,0.,24.0
1989-08-27T22:38:10.800 ,2,0,0.,24.0,0.,24.0,0.,24.0,0.,24.0
1989-08-27T22:38:34.800 ,3,1,0.,24.0,0.,24.0,0.,24.0,0.,24.0
1989-08-27T22:38:58.800 ,3,0,0.,24.0,0.,24.0,0.,24.0,0.,24.0
1989-08-27T22:39:22.800 ,4,1,0.,24.0,0.,24.0,0.,24.0,0.,24.0
1989-08-27T22:39:46.800 ,4,0,0.,24.0,0.,24.0,0.,24.0,0.,24.0
1989-08-27T22:40:10.800 ,5,1,1.,24.0,0.,24.0,0.,24.0,0.,24.0
1989-08-27T22:40:34.800 ,5,0,0.,24.0,0.,24.0,0.,24.0,0.,24.0
1989-08-27T22:40:58.800 ,6,1,0.,24.0,0.,24.0,0.,24.0,0.,24.0
1989-08-27T22:41:22.800 ,6,0,0.,24.0,0.,24.0,0.,24.0,0.,24.0
1989-08-27T22:41:46.800 ,7,1,4.,24.0,0.,24.0,0.,24.0,0.,24.0
1989-08-27T22:42:10.800 ,7,0,21.,24.0,1.,24.0,0.,24.0,0.,24.0
1989-08-27T22:42:34.800 ,7,1,24.,24.0,0.,24.0,0.,24.0,0.,24.0
1989-08-27T22:42:58.800 ,7,0,34.,24.0,0.,24.0,0.,24.0,0.,24.0
1989-08-27T22:43:22.800 ,6,1,21.,24.0,0.,24.0,0.,24.0,0.,24.0
1989-08-27T22:43:46.800 ,6,0,0.,24.0,0.,24.0,0.,24.0,0.,24.0
1989-08-27T22:44:10.800 ,5,1,0.,24.0,0.,24.0,0.,24.0,0.,24.0
1989-08-27T22:44:34.800 ,5,0,1.,24.0,0.,24.0,0.,24.0,0.,24.0
1989-08-27T22:44:58.800 ,4,1,0.,24.0,0.,24.0,0.,24.0,0.,24.0
1989-08-27T22:45:22.800 ,4,0,0.,24.0,0.,24.0,0.,24.0,0.,24.0
1989-08-27T22:45:46.800 ,3,1,0.,24.0,0.,24.0,0.,24.0,0.,24.0
1989-08-27T22:46:10.800 ,3,0,0.,24.0,0.,24.0,0.,24.0,0.,24.0
1989-08-27T22:46:34.800 ,2,1,0.,24.0,0.,24.0,0.,24.0,0.,24.0
1989-08-27T22:46:58.800 ,2,0,0.,24.0,0.,24.0,0.,24.0,0.,24.0
1989-08-27T22:47:22.800 ,1,1,0.,24.0,0.,24.0,0.,24.0,0.,24.0
1989-08-27T22:47:46.800 ,1,0,0.,24.0,0.,24.0,0.,24.0,0.,24.0
1989-08-27T22:48:10.800 ,0,1,0.,24.0,0.,24.0,0.,24.0,0.,24.0
1989-08-27T22:48:34.800 ,0,0,0.,24.0,0.,24.0,0.,24.0,0.,24.0
1989-08-27T22:48:58.800 ,0,1,0.,24.0,0.,24.0,0.,24.0,0.,24.0
1989-08-27T22:49:22.800 ,0,0,0.,24.0,0.,24.0,0.,24.0,0.,24.0
1989-08-27T22:49:46.800 ,1,1,0.,24.0,0.,24.0,0.,24.0,0.,24.0
1989-08-27T22:50:10.800 ,1,0,1.,24.0,0.,24.0,0.,24.0,0.,24.0
1989-08-27T22:50:34.800 ,2,1,0.,24.0,0.,24.0,0.,24.0,0.,24.0
1989-08-27T22:50:58.800 ,2,0,0.,24.0,0.,24.0,0.,24.0,0.,24.0
1989-08-27T22:51:22.800 ,3,1,0.,24.0,0.,24.0,0.,24.0,0.,24.0
1989-08-27T22:51:46.800 ,3,0,0.,24.0,0.,24.0,0.,24.0,0.,24.0
1989-08-27T22:52:10.800 ,4,1,0.,24.0,0.,24.0,0.,24.0,0.,24.0
1989-08-27T22:52:34.800 ,4,0,0.,24.0,0.,24.0,0.,24.0,0.,24.0
1989-08-27T22:52:58.800 ,5,1,0.,24.0,0.,24.0,0.,24.0,0.,24.0
1989-08-27T22:53:22.800 ,5,0,0.,24.0,0.,24.0,0.,24.0,0.,24.0
1989-08-27T22:53:46.800 ,6,1,0.,24.0,0.,24.0,0.,24.0,0.,24.0
1989-08-27T22:54:10.800 ,6,0,0.,24.0,0.,24.0,0.,24.0,0.,24.0
1989-08-27T22:54:34.800 ,7,1,8.,24.0,0.,24.0,0.,24.0,0.,24.0
1989-08-27T22:54:58.800 ,7,0,37.,24.0,0.,24.0,0.,24.0,0.,24.0
1989-08-27T22:55:22.800 ,7,1,41.,24.0,0.,24.0,0.,24.0,0.,24.0
1989-08-27T22:55:46.800 ,7,0,23.,24.0,0.,24.0,0.,24.0,0.,24.0
1989-08-27T22:56:10.800 ,6,1,29.,24.0,0.,24.0,0.,24.0,0.,24.0
1989-08-27T22:56:34.800 ,6,0,0.,24.0,1.,24.0,0.,24.0,0.,24.0
1989-08-27T22:56:58.800 ,5,1,0.,24.0,0.,24.0,0.,24.0,0.,24.0
1989-08-27T22:57:22.800 ,5,0,0.,24.0,0.,24.0,0.,24.0,0.,24.0
1989-08-27T22:57:46.800 ,4,1,0.,24.0,0.,24.0,0.,24.0,0.,24.0
1989-08-27T22:58:10.800 ,4,0,0.,24.0,0.,24.0,0.,24.0,0.,24.0
1989-08-27T22:58:34.800 ,3,1,0.,24.0,0.,24.0,0.,24.0,0.,24.0
1989-08-27T22:58:58.800 ,3,0,0.,24.0,0.,24.0,0.,24.0,0.,24.0
1989-08-27T22:59:22.800 ,2,1,0.,24.0,0.,24.0,0.,24.0,0.,24.0
1989-08-27T22:59:46.800 ,2,0,0.,24.0,0.,24.0,0.,24.0,0.,24.0
1989-08-27T23:00:10.800 ,1,1,0.,24.0,0.,24.0,0.,24.0,0.,24.0
1989-08-27T23:00:34.800 ,1,0,0.,24.0,0.,24.0,0.,24.0,0.,24.0
1989-08-27T23:00:58.800 ,0,1,0.,24.0,0.,24.0,0.,24.0,0.,24.0
1989-08-27T23:01:22.800 ,0,0,0.,24.0,0.,24.0,0.,24.0,0.,24.0
1989-08-27T23:01:46.800 ,0,1,1.,24.0,0.,24.0,0.,24.0,0.,24.0
1989-08-27T23:02:10.800 ,0,0,0.,24.0,0.,24.0,0.,24.0,0.,24.0
1989-08-27T23:02:34.800 ,1,1,0.,24.0,0.,24.0,0.,24.0,0.,24.0
1989-08-27T23:02:58.800 ,1,0,0.,24.0,0.,24.0,0.,24.0,0.,24.0
1989-08-27T23:03:22.800 ,2,1,0.,24.0,0.,24.0,0.,24.0,0.,24.0
1989-08-27T23:03:46.800 ,2,0,1.,24.0,0.,24.0,0.,24.0,0.,24.0
1989-08-27T23:04:10.800 ,3,1,0.,24.0,0.,24.0,0.,24.0,0.,24.0
1989-08-27T23:04:34.800 ,3,0,0.,24.0,0.,24.0,0.,24.0,0.,24.0
1989-08-27T23:04:58.800 ,4,1,0.,24.0,1.,24.0,0.,24.0,0.,24.0
1989-08-27T23:05:22.800 ,4,0,0.,24.0,0.,24.0,0.,24.0,0.,24.0
1989-08-27T23:05:46.800 ,5,1,0.,24.0,0.,24.0,0.,24.0,0.,24.0
1989-08-27T23:06:10.800 ,5,0,0.,24.0,0.,24.0,0.,24.0,0.,24.0
1989-08-27T23:06:34.800 ,6,1,0.,24.0,0.,24.0,0.,24.0,0.,24.0
1989-08-27T23:06:58.800 ,6,0,0.,24.0,0.,24.0,0.,24.0,0.,24.0
1989-08-27T23:07:22.800 ,7,1,8.,24.0,0.,24.0,0.,24.0,0.,24.0
1989-08-27T23:07:46.800 ,7,0,27.,24.0,0.,24.0,0.,24.0,0.,24.0
1989-08-27T23:08:10.800 ,7,1,31.,24.0,0.,24.0,0.,24.0,0.,24.0
1989-08-27T23:08:34.800 ,7,0,30.,24.0,0.,24.0,0.,24.0,0.,24.0
1989-08-27T23:08:58.800 ,6,1,19.,24.0,0.,24.0,0.,24.0,0.,24.0
1989-08-27T23:09:22.800 ,6,0,0.,24.0,0.,24.0,0.,24.0,0.,24.0
1989-08-27T23:09:46.800 ,5,1,0.,24.0,0.,24.0,0.,24.0,0.,24.0
1989-08-27T23:10:10.800 ,5,0,0.,24.0,0.,24.0,0.,24.0,0.,24.0
1989-08-27T23:10:34.800 ,4,1,0.,24.0,0.,24.0,0.,24.0,0.,24.0
1989-08-27T23:10:58.800 ,4,0,0.,24.0,0.,24.0,0.,24.0,0.,24.0
1989-08-27T23:11:22.800 ,3,1,0.,24.0,0.,24.0,0.,24.0,0.,24.0
1989-08-27T23:11:46.800 ,3,0,0.,24.0,0.,24.0,0.,24.0,0.,24.0
1989-08-27T23:12:10.800 ,2,1,1.,24.0,0.,24.0,0.,24.0,0.,24.0
1989-08-27T23:12:34.800 ,2,0,0.,24.0,0.,24.0,0.,24.0,0.,24.0
1989-08-27T23:12:58.800 ,1,1,0.,24.0,0.,24.0,0.,24.0,0.,24.0
1989-08-27T23:13:22.800 ,1,0,0.,24.0,0.,24.0,0.,24.0,0.,24.0
1989-08-27T23:13:46.800 ,0,1,0.,24.0,0.,24.0,0.,24.0,0.,24.0
1989-08-27T23:14:10.800 ,0,0,0.,24.0,0.,24.0,0.,24.0,0.,24.0
1989-08-27T23:14:34.800 ,0,1,0.,24.0,0.,24.0,0.,24.0,0.,24.0
1989-08-27T23:14:58.800 ,0,0,0.,24.0,0.,24.0,0.,24.0,0.,24.0
1989-08-27T23:15:22.800 ,1,1,0.,24.0,0.,24.0,0.,24.0,0.,24.0
1989-08-27T23:15:46.800 ,1,0,0.,24.0,0.,24.0,0.,24.0,0.,24.0
1989-08-27T23:16:10.800 ,2,1,0.,24.0,0.,24.0,0.,24.0,0.,24.0
1989-08-27T23:16:34.800 ,2,0,0.,24.0,0.,24.0,0.,24.0,0.,24.0
1989-08-27T23:16:58.800 ,3,1,0.,24.0,0.,24.0,0.,24.0,0.,24.0
1989-08-27T23:17:22.800 ,3,0,0.,24.0,0.,24.0,0.,24.0,0.,24.0
1989-08-27T23:17:46.800 ,4,1,0.,24.0,0.,24.0,0.,24.0,0.,24.0
1989-08-27T23:18:10.800 ,4,0,0.,24.0,0.,24.0,0.,24.0,0.,24.0
1989-08-27T23:18:34.800 ,5,1,0.,24.0,0.,24.0,0.,24.0,0.,24.0
1989-08-27T23:18:58.800 ,5,0,0.,24.0,0.,24.0,0.,24.0,0.,24.0
1989-08-27T23:19:22.800 ,6,1,1.,24.0,0.,24.0,0.,24.0,0.,24.0
1989-08-27T23:19:46.800 ,6,0,0.,24.0,0.,24.0,0.,24.0,0.,24.0
1989-08-27T23:20:10.800 ,7,1,2.,24.0,0.,24.0,0.,24.0,0.,24.0
1989-08-27T23:20:34.800 ,7,0,29.,24.0,0.,24.0,0.,24.0,0.,24.0
1989-08-27T23:20:58.800 ,7,1,29.,24.0,0.,24.0,0.,24.0,0.,24.0
1989-08-27T23:21:22.800 ,7,0,36.,24.0,0.,24.0,0.,24.0,0.,24.0
1989-08-27T23:21:46.800 ,6,1,20.,24.0,0.,24.0,0.,24.0,0.,24.0
1989-08-27T23:22:10.800 ,6,0,0.,24.0,1.,24.0,0.,24.0,0.,24.0
1989-08-27T23:22:34.800 ,5,1,0.,24.0,0.,24.0,0.,24.0,0.,24.0
1989-08-27T23:22:58.800 ,5,0,0.,24.0,0.,24.0,0.,24.0,0.,24.0
1989-08-27T23:23:22.800 ,4,1,0.,24.0,0.,24.0,0.,24.0,0.,24.0
1989-08-27T23:23:46.800 ,4,0,0.,24.0,0.,24.0,0.,24.0,0.,24.0
1989-08-27T23:24:10.800 ,3,1,0.,24.0,0.,24.0,0.,24.0,0.,24.0
1989-08-27T23:24:34.800 ,3,0,0.,24.0,0.,24.0,0.,24.0,0.,24.0
1989-08-27T23:24:58.800 ,2,1,0.,24.0,0.,24.0,0.,24.0,0.,24.0
1989-08-27T23:25:22.800 ,2,0,0.,24.0,0.,24.0,0.,24.0,0.,24.0
1989-08-27T23:25:46.800 ,1,1,0.,24.0,0.,24.0,0.,24.0,0.,24.0
1989-08-27T23:26:10.800 ,1,0,0.,24.0,0.,24.0,0.,24.0,0.,24.0
1989-08-27T23:26:34.800 ,0,1,0.,24.0,0.,24.0,0.,24.0,0.,24.0
1989-08-27T23:26:58.800 ,0,0,0.,24.0,0.,24.0,0.,24.0,0.,24.0
1989-08-27T23:27:22.800 ,0,1,0.,24.0,0.,24.0,0.,24.0,0.,24.0
1989-08-27T23:27:46.800 ,0,0,0.,24.0,0.,24.0,0.,24.0,0.,24.0
1989-08-27T23:28:10.800 ,1,1,0.,24.0,0.,24.0,0.,24.0,0.,24.0
1989-08-27T23:28:34.800 ,1,0,0.,24.0,0.,24.0,0.,24.0,0.,24.0
1989-08-27T23:28:58.800 ,2,1,0.,24.0,0.,24.0,0.,24.0,0.,24.0
1989-08-27T23:29:22.800 ,2,0,0.,24.0,0.,24.0,0.,24.0,0.,24.0
1989-08-27T23:29:46.800 ,3,1,0.,24.0,0.,24.0,0.,24.0,0.,24.0
1989-08-27T23:30:10.800 ,3,0,0.,24.0,0.,24.0,0.,24.0,0.,24.0
1989-08-27T23:30:34.800 ,4,1,0.,24.0,0.,24.0,0.,24.0,0.,24.0
1989-08-27T23:30:58.800 ,4,0,0.,24.0,0.,24.0,0.,24.0,0.,24.0
1989-08-27T23:31:22.800 ,5,1,0.,24.0,0.,24.0,0.,24.0,0.,24.0
1989-08-27T23:31:46.800 ,5,0,0.,24.0,0.,24.0,0.,24.0,0.,24.0
1989-08-27T23:32:10.800 ,6,1,0.,24.0,0.,24.0,0.,24.0,0.,24.0
1989-08-27T23:32:34.800 ,6,0,0.,24.0,0.,24.0,0.,24.0,0.,24.0
1989-08-27T23:32:58.800 ,7,1,6.,24.0,0.,24.0,0.,24.0,0.,24.0
1989-08-27T23:33:22.800 ,7,0,32.,24.0,0.,24.0,0.,24.0,0.,24.0
1989-08-27T23:33:46.800 ,7,1,29.,24.0,0.,24.0,0.,24.0,0.,24.0
1989-08-27T23:34:10.800 ,7,0,30.,24.0,0.,24.0,0.,24.0,0.,24.0